Time,TemperatureF,DewpointF,PressureIn,WindDirection,WindDirectionDegrees,WindSpeedMPH,WindSpeedGustMPH,Humidity,HourlyPrecipIn,Conditions,Clouds,dailyrainin,SoftwareType,DateUTC
2013-04-16 00:12:00,62.4,35.0,29.37,North,359,0.0,-999.0,36,-99.99,,,0.00,weatherlink.com 1.10,2013-04-16 07:12:00,
2013-04-16 00:27:00,61.8,35.0,29.36,North,359,1.0,-999.0,37,-99.99,,,0.00,weatherlink.com 1.10,2013-04-16 07:27:00,
2013-04-16 00:42:00,61.3,35.0,29.37,North,359,0.0,-999.0,38,-99.99,,,0.00,weatherlink.com 1.10,2013-04-16 07:42:00,
2013-04-16 00:57:00,61.0,35.0,29.37,North,359,0.0,-999.0,38,-99.99,,,0.00,weatherlink.com 1.10,2013-04-16 07:57:00,
2013-04-16 01:12:00,60.7,35.0,29.36,North,359,0.0,-999.0,38,-99.99,,,0.00,weatherlink.com 1.10,2013-04-16 08:12:00,
2013-04-16 01:27:00,60.2,36.0,29.36,North,359,0.0,-999.0,40,-99.99,,,0.00,weatherlink.com 1.10,2013-04-16 08:27:00,
2013-04-16 01:42:00,59.9,36.0,29.36,North,357,0.0,-999.0,41,-99.99,,,0.00,weatherlink.com 1.10,2013-04-16 08:42:00,
2013-04-16 01:57:00,59.5,36.0,29.37,North,359,0.0,-999.0,42,-99.99,,,0.00,weatherlink.com 1.10,2013-04-16 08:57:00,
2013-04-16 02:12:00,59.5,36.0,29.36,North,359,0.0,-999.0,41,-99.99,,,0.00,weatherlink.com 1.10,2013-04-16 09:12:00,
2013-04-16 02:27:00,59.2,36.0,29.37,North,359,0.0,-999.0,42,-99.99,,,0.00,weatherlink.com 1.10,2013-04-16 09:27:00,
2013-04-16 02:42:00,58.7,35.0,29.36,North,359,0.0,-999.0,42,-99.99,,,0.00,weatherlink.com 1.10,2013-04-16 09:42:00,
2013-04-16 02:57:00,58.3,36.0,29.37,North,359,0.0,-999.0,43,-99.99,,,0.00,weatherlink.com 1.10,2013-04-16 09:57:00,
2013-04-16 03:12:00,58.3,36.0,29.37,North,354,0.0,-999.0,43,-99.99,,,0.00,weatherlink.com 1.10,2013-04-16 10:12:00,
2013-04-16 03:27:00,57.6,36.0,29.37,North,357,1.0,-999.0,44,-99.99,,,0.00,weatherlink.com 1.10,2013-04-16 10:27:00,
2013-04-16 03:42:00,57.5,35.0,29.37,North,357,0.0,-999.0,43,-99.99,,,0.00,weatherlink.com 1.10,2013-04-16 10:42:00,
2013-04-16 03:57:00,57.3,35.0,29.38,North,357,0.0,-999.0,43,-99.99,,,0.00,weatherlink.com 1.10,2013-04-16 10:57:00,
2013-04-16 04:12:00,57.2,35.0,29.38,North,359,0.0,-999.0,43,-99.99,,,0.00,weatherlink.com 1.10,2013-04-16 11:12:00,
2013-04-16 04:27:00,57.0,34.0,29.38,NNW,347,0.0,-999.0,43,-99.99,,,0.00,weatherlink.com 1.10,2013-04-16 11:27:00,
2013-04-16 04:42:00,57.2,33.0,29.38,North,359,0.0,-999.0,41,-99.99,,,0.00,weatherlink.com 1.10,2013-04-16 11:42:00,
2013-04-16 04:57:00,57.2,33.0,29.39,North,359,0.0,-999.0,41,-99.99,,,0.00,weatherlink.com 1.10,2013-04-16 11:57:00,
2013-04-16 05:12:00,56.7,34.0,29.38,North,359,0.0,-999.0,42,-99.99,,,0.00,weatherlink.com 1.10,2013-04-16 12:12:00,
2013-04-16 05:27:00,56.5,33.0,29.38,North,359,0.0,-999.0,41,-99.99,,,0.00,weatherlink.com 1.10,2013-04-16 12:27:00,
2013-04-16 05:42:00,56.0,34.0,29.39,North,359,0.0,-999.0,43,-99.99,,,0.00,weatherlink.com 1.10,2013-04-16 12:42:00,
2013-04-16 05:57:00,54.7,34.0,29.39,North,357,0.0,-999.0,46,-99.99,,,0.00,weatherlink.com 1.10,2013-04-16 12:57:00,
2013-04-16 06:12:00,54.2,34.0,29.40,North,359,0.0,-999.0,47,-99.99,,,0.00,weatherlink.com 1.10,2013-04-16 13:12:00,
2013-04-16 06:27:00,54.7,33.0,29.41,North,359,0.0,-999.0,44,-99.99,,,0.00,weatherlink.com 1.10,2013-04-16 13:27:00,
2013-04-16 06:42:00,55.0,33.0,29.42,North,359,0.0,-999.0,44,-99.99,,,0.00,weatherlink.com 1.10,2013-04-16 13:42:00,
2013-04-16 06:57:00,55.9,33.0,29.43,North,359,0.0,-999.0,42,-99.99,,,0.00,weatherlink.com 1.10,2013-04-16 13:57:00,
2013-04-16 07:12:00,56.0,34.0,29.44,North,359,0.0,-999.0,44,-99.99,,,0.00,weatherlink.com 1.10,2013-04-16 14:12:00,
2013-04-16 07:27:00,56.3,34.0,29.45,North,359,0.0,-999.0,43,-99.99,,,0.00,weatherlink.com 1.10,2013-04-16 14:27:00,
2013-04-16 07:42:00,56.9,34.0,29.46,North,357,0.0,-999.0,42,-99.99,,,0.00,weatherlink.com 1.10,2013-04-16 14:42:00,
2013-04-16 07:57:00,58.7,34.0,29.46,North,357,1.0,-999.0,40,-99.99,,,0.00,weatherlink.com 1.10,2013-04-16 14:57:00,
2013-04-16 08:12:00,59.8,35.0,29.46,North,357,1.0,-999.0,40,-99.99,,,0.00,weatherlink.com 1.10,2013-04-16 15:12:00,
2013-04-16 08:27:00,61.5,35.0,29.46,North,359,1.0,-999.0,37,-99.99,,,0.00,weatherlink.com 1.10,2013-04-16 15:27:00,
2013-04-16 08:42:00,62.4,34.0,29.46,NW,315,0.0,-999.0,35,-99.99,,,0.00,weatherlink.com 1.10,2013-04-16 15:42:00,
2013-04-16 08:58:00,62.7,33.0,29.46,North,359,0.0,-999.0,33,-99.99,,,0.00,weatherlink.com 1.10,2013-04-16 15:58:00,
2013-04-16 09:13:00,63.7,34.0,29.46,North,357,2.0,-999.0,33,-99.99,,,0.00,weatherlink.com 1.10,2013-04-16 16:13:00,
2013-04-16 09:28:00,64.8,34.0,29.46,North,359,2.0,-999.0,32,-99.99,,,0.00,weatherlink.com 1.10,2013-04-16 16:28:00,
2013-04-16 09:43:00,65.6,31.0,29.46,North,359,1.0,-999.0,28,-99.99,,,0.00,weatherlink.com 1.10,2013-04-16 16:43:00,
2013-04-16 09:58:00,66.3,34.0,29.46,North,359,10.0,-999.0,30,-99.99,,,0.00,weatherlink.com 1.10,2013-04-16 16:58:00,
2013-04-16 10:13:00,67.3,32.0,29.47,North,359,3.0,-999.0,27,-99.99,,,0.00,weatherlink.com 1.10,2013-04-16 17:13:00,
2013-04-16 10:28:00,68.3,34.0,29.47,North,357,6.0,-999.0,28,-99.99,,,0.00,weatherlink.com 1.10,2013-04-16 17:28:00,
2013-04-16 10:43:00,68.1,35.0,29.47,North,359,7.0,-999.0,29,-99.99,,,0.00,weatherlink.com 1.10,2013-04-16 17:43:00,
2013-04-16 10:58:00,69.3,32.0,29.47,North,359,5.0,-999.0,25,-99.99,,,0.00,weatherlink.com 1.10,2013-04-16 17:58:00,
2013-04-16 11:13:00,69.4,32.0,29.47,North,359,6.0,-999.0,25,-99.99,,,0.00,weatherlink.com 1.10,2013-04-16 18:13:00,
2013-04-16 11:28:00,70.3,31.0,29.46,North,0,6.0,-999.0,23,-99.99,,,0.00,weatherlink.com 1.10,2013-04-16 18:28:00,
2013-04-16 11:43:00,70.8,30.0,29.46,North,359,7.0,-999.0,22,-99.99,,,0.00,weatherlink.com 1.10,2013-04-16 18:43:00,
2013-04-16 11:58:00,71.3,32.0,29.46,North,357,3.0,-999.0,23,-99.99,,,0.00,weatherlink.com 1.10,2013-04-16 18:58:00,
2013-04-16 12:13:00,72.1,31.0,29.46,North,359,11.0,-999.0,22,-99.99,,,0.00,weatherlink.com 1.10,2013-04-16 19:13:00,
2013-04-16 12:28:00,73.0,28.0,29.45,North,359,11.0,-999.0,19,-99.99,,,0.00,weatherlink.com 1.10,2013-04-16 19:28:00,
2013-04-16 12:43:00,73.9,30.0,29.44,North,359,6.0,-999.0,20,-99.99,,,0.00,weatherlink.com 1.10,2013-04-16 19:43:00,
2013-04-16 12:58:00,74.4,31.0,29.43,North,359,3.0,-999.0,20,-99.99,,,0.00,weatherlink.com 1.10,2013-04-16 19:58:00,
2013-04-16 13:13:00,74.4,29.0,29.43,North,359,0.0,-999.0,19,-99.99,,,0.00,weatherlink.com 1.10,2013-04-16 20:13:00,
2013-04-16 13:28:00,74.9,31.0,29.43,North,359,0.0,-999.0,20,-99.99,,,0.00,weatherlink.com 1.10,2013-04-16 20:28:00,
2013-04-16 13:43:00,75.3,30.0,29.43,North,357,4.0,-999.0,19,-99.99,,,0.00,weatherlink.com 1.10,2013-04-16 20:43:00,
2013-04-16 13:58:00,75.1,29.0,29.42,NNW,333,5.0,-999.0,18,-99.99,,,0.00,weatherlink.com 1.10,2013-04-16 20:58:00,
2013-04-16 14:13:00,75.4,29.0,29.42,North,356,1.0,-999.0,18,-99.99,,,0.00,weatherlink.com 1.10,2013-04-16 21:13:00,
2013-04-16 14:28:00,75.8,28.0,29.42,North,359,5.0,-999.0,17,-99.99,,,0.00,weatherlink.com 1.10,2013-04-16 21:28:00,
2013-04-16 14:43:00,75.4,28.0,29.42,North,357,6.0,-999.0,17,-99.99,,,0.00,weatherlink.com 1.10,2013-04-16 21:43:00,
2013-04-16 14:58:00,75.8,28.0,29.41,North,359,6.0,-999.0,17,-99.99,,,0.00,weatherlink.com 1.10,2013-04-16 21:58:00,
2013-04-16 15:13:00,76.0,27.0,29.40,North,359,7.0,-999.0,16,-99.99,,,0.00,weatherlink.com 1.10,2013-04-16 22:13:00,
2013-04-16 15:28:00,76.1,27.0,29.40,North,359,5.0,-999.0,16,-99.99,,,0.00,weatherlink.com 1.10,2013-04-16 22:28:00,
2013-04-16 15:43:00,76.5,28.0,29.39,North,359,3.0,-999.0,17,-99.99,,,0.00,weatherlink.com 1.10,2013-04-16 22:43:00,
2013-04-16 15:58:00,76.3,28.0,29.39,North,359,8.0,-999.0,17,-99.99,,,0.00,weatherlink.com 1.10,2013-04-16 22:58:00,
2013-04-16 16:13:00,76.3,28.0,29.38,North,359,9.0,-999.0,17,-99.99,,,0.00,weatherlink.com 1.10,2013-04-16 23:13:00,
2013-04-16 16:28:00,76.5,28.0,29.38,North,359,2.0,-999.0,17,-99.99,,,0.00,weatherlink.com 1.10,2013-04-16 23:28:00,
2013-04-16 16:43:00,76.0,28.0,29.38,North,359,6.0,-999.0,17,-99.99,,,0.00,weatherlink.com 1.10,2013-04-16 23:43:00,
2013-04-16 16:58:00,75.8,26.0,29.38,North,357,7.0,-999.0,16,-99.99,,,0.00,weatherlink.com 1.10,2013-04-16 23:58:00,
2013-04-16 17:13:00,75.8,28.0,29.38,North,357,6.0,-999.0,17,-99.99,,,0.00,weatherlink.com 1.10,2013-04-17 00:13:00,
2013-04-16 17:28:00,75.4,28.0,29.38,North,357,3.0,-999.0,17,-99.99,,,0.00,weatherlink.com 1.10,2013-04-17 00:28:00,
2013-04-16 17:43:00,74.9,27.0,29.37,North,357,2.0,-999.0,17,-99.99,,,0.00,weatherlink.com 1.10,2013-04-17 00:43:00,
2013-04-16 17:58:00,75.1,27.0,29.38,North,359,3.0,-999.0,17,-99.99,,,0.00,weatherlink.com 1.10,2013-04-17 00:58:00,
2013-04-16 18:13:00,74.2,27.0,29.37,North,359,2.0,-999.0,17,-99.99,,,0.00,weatherlink.com 1.10,2013-04-17 01:13:00,
2013-04-16 18:28:00,73.5,29.0,29.38,North,359,6.0,-999.0,19,-99.99,,,0.00,weatherlink.com 1.10,2013-04-17 01:28:00,
2013-04-16 18:43:00,72.1,29.0,29.38,North,357,6.0,-999.0,20,-99.99,,,0.00,weatherlink.com 1.10,2013-04-17 01:43:00,
2013-04-16 18:58:00,70.8,29.0,29.38,North,359,7.0,-999.0,21,-99.99,,,0.00,weatherlink.com 1.10,2013-04-17 01:58:00,
2013-04-16 19:13:00,69.6,29.0,29.38,North,0,10.0,-999.0,22,-99.99,,,0.00,weatherlink.com 1.10,2013-04-17 02:13:00,
2013-04-16 19:28:00,68.8,29.0,29.38,North,359,5.0,-999.0,23,-99.99,,,0.00,weatherlink.com 1.10,2013-04-17 02:28:00,
2013-04-16 19:43:00,68.1,30.0,29.39,North,357,6.0,-999.0,24,-99.99,,,0.00,weatherlink.com 1.10,2013-04-17 02:43:00,
2013-04-16 19:58:00,67.6,30.0,29.39,North,357,1.0,-999.0,25,-99.99,,,0.00,weatherlink.com 1.10,2013-04-17 02:58:00,
2013-04-16 20:13:00,67.3,31.0,29.40,North,359,6.0,-999.0,26,-99.99,,,0.00,weatherlink.com 1.10,2013-04-17 03:13:00,
2013-04-16 20:28:00,66.8,32.0,29.41,North,359,6.0,-999.0,27,-99.99,,,0.00,weatherlink.com 1.10,2013-04-17 03:28:00,
2013-04-16 20:43:00,65.5,33.0,29.41,North,357,5.0,-999.0,30,-99.99,,,0.00,weatherlink.com 1.10,2013-04-17 03:43:00,
2013-04-16 20:58:00,64.2,34.0,29.43,North,359,2.0,-999.0,32,-99.99,,,0.00,weatherlink.com 1.10,2013-04-17 03:58:00,
2013-04-16 21:13:00,63.2,33.0,29.45,North,359,10.0,-999.0,32,-99.99,,,0.00,weatherlink.com 1.10,2013-04-17 04:13:00,
2013-04-16 21:28:00,62.3,34.0,29.45,North,359,9.0,-999.0,35,-99.99,,,0.00,weatherlink.com 1.10,2013-04-17 04:28:00,
2013-04-16 21:43:00,61.3,34.0,29.46,North,359,6.0,-999.0,36,-99.99,,,0.00,weatherlink.com 1.10,2013-04-17 04:43:00,
2013-04-16 21:58:00,60.7,34.0,29.47,North,357,0.0,-999.0,37,-99.99,,,0.00,weatherlink.com 1.10,2013-04-17 04:58:00,
2013-04-16 22:13:00,59.9,35.0,29.48,NW,319,6.0,-999.0,39,-99.99,,,0.00,weatherlink.com 1.10,2013-04-17 05:13:00,
2013-04-16 22:28:00,59.3,35.0,29.48,North,357,2.0,-999.0,40,-99.99,,,0.00,weatherlink.com 1.10,2013-04-17 05:28:00,
2013-04-16 22:43:00,59.0,35.0,29.48,North,357,3.0,-999.0,40,-99.99,,,0.00,weatherlink.com 1.10,2013-04-17 05:43:00,
2013-04-16 22:58:00,58.6,35.0,29.49,North,359,0.0,-999.0,41,-99.99,,,0.00,weatherlink.com 1.10,2013-04-17 05:58:00,
2013-04-16 23:13:00,58.3,34.0,29.49,North,359,0.0,-999.0,40,-99.99,,,0.00,weatherlink.com 1.10,2013-04-17 06:13:00,
2013-04-16 23:28:00,58.6,34.0,29.50,NNW,339,0.0,-999.0,40,-99.99,,,0.00,weatherlink.com 1.10,2013-04-17 06:28:00,
2013-04-16 23:44:00,58.1,34.0,29.50,North,359,0.0,-999.0,41,-99.99,,,0.00,weatherlink.com 1.10,2013-04-17 06:44:00,
2013-04-16 23:58:00,57.8,36.0,29.50,North,359,1.0,-999.0,44,-99.99,,,0.00,weatherlink.com 1.10,2013-04-17 06:58:00,